Time,TemperatureF,DewpointF,PressureIn,WindDirection,WindDirectionDegrees,WindSpeedMPH,WindSpeedGustMPH,Humidity,HourlyPrecipIn,Conditions,Clouds,dailyrainin,SoftwareType,DateUTC
2013-03-15 00:00:00,34.0,16.8,30.13,WNW,293,4.0,4.0,49,0.00,,,0.00,Wunderground v.1.15,2013-03-15 04:00:00,
2013-03-15 00:01:00,34.0,17.3,30.12,West,276,4.0,18.0,50,0.00,,,0.00,Wunderground v.1.15,2013-03-15 04:01:00,
2013-03-15 00:02:00,34.0,16.8,30.12,West,280,4.0,18.0,49,0.00,,,0.00,Wunderground v.1.15,2013-03-15 04:02:00,
2013-03-15 00:03:00,34.1,16.9,30.12,WNW,294,4.0,18.0,49,0.00,,,0.00,Wunderground v.1.15,2013-03-15 04:03:00,
2013-03-15 00:08:00,34.0,17.3,30.12,WNW,294,3.0,18.0,50,0.00,,,0.00,Wunderground v.1.15,2013-03-15 04:08:00,
2013-03-15 00:13:00,34.0,17.3,30.13,WNW,283,3.0,6.0,50,0.00,,,0.00,Wunderground v.1.15,2013-03-15 04:13:00,
2013-03-15 00:19:00,33.7,17.5,30.13,WNW,301,3.0,8.0,51,0.00,,,0.00,Wunderground v.1.15,2013-03-15 04:19:00,
2013-03-15 00:24:00,34.0,16.8,30.13,WNW,288,4.0,6.0,49,0.00,,,0.00,Wunderground v.1.15,2013-03-15 04:24:00,
2013-03-15 00:29:00,34.0,17.3,30.13,WNW,291,4.0,7.0,50,0.00,,,0.00,Wunderground v.1.15,2013-03-15 04:29:00,
2013-03-15 00:34:00,34.1,17.4,30.13,WNW,297,4.0,5.0,50,0.00,,,0.00,Wunderground v.1.15,2013-03-15 04:34:00,
2013-03-15 00:40:00,34.1,17.4,30.12,West,277,4.0,4.0,50,0.00,,,0.00,Wunderground v.1.15,2013-03-15 04:40:00,
2013-03-15 00:45:00,33.8,17.6,30.12,West,278,5.0,12.0,51,0.00,,,0.00,Wunderground v.1.15,2013-03-15 04:45:00,
2013-03-15 00:50:00,33.7,17.9,30.12,WNW,288,5.0,5.0,52,0.00,,,0.00,Wunderground v.1.15,2013-03-15 04:50:00,
2013-03-15 00:55:00,33.5,17.7,30.12,WNW,288,4.0,7.0,52,0.00,,,0.00,Wunderground v.1.15,2013-03-15 04:55:00,
2013-03-15 01:00:00,33.5,17.7,30.12,WNW,300,5.0,5.0,52,0.00,,,0.00,Wunderground v.1.15,2013-03-15 05:00:00,
2013-03-15 01:06:00,33.5,17.7,30.12,NNW,338,5.0,13.0,52,0.00,,,0.00,Wunderground v.1.15,2013-03-15 05:06:00,
2013-03-15 01:11:00,33.5,17.7,30.12,WNW,299,6.0,6.0,52,0.00,,,0.00,Wunderground v.1.15,2013-03-15 05:11:00,
2013-03-15 01:17:00,33.4,18.5,30.12,NW,309,4.0,6.0,54,0.00,,,0.00,Wunderground v.1.15,2013-03-15 05:17:00,
2013-03-15 01:22:00,33.2,18.3,30.12,WNW,290,4.0,6.0,54,0.00,,,0.00,Wunderground v.1.15,2013-03-15 05:22:00,
2013-03-15 01:27:00,33.4,18.1,30.12,NW,311,5.0,13.0,53,0.00,,,0.00,Wunderground v.1.15,2013-03-15 05:27:00,
2013-03-15 01:33:00,33.8,18.5,30.12,NW,313,6.0,6.0,53,0.00,,,0.00,Wunderground v.1.15,2013-03-15 05:33:00,
2013-03-15 01:39:00,33.5,18.2,30.12,NW,306,5.0,6.0,53,0.00,,,0.00,Wunderground v.1.15,2013-03-15 05:39:00,
2013-03-15 01:44:00,33.7,17.9,30.11,WNW,285,6.0,15.0,52,0.00,,,0.00,Wunderground v.1.15,2013-03-15 05:44:00,
2013-03-15 01:50:00,33.4,18.1,30.11,WNW,292,6.0,6.0,53,0.00,,,0.00,Wunderground v.1.15,2013-03-15 05:50:00,
2013-03-15 01:56:00,33.4,18.1,30.11,West,267,5.0,8.0,53,0.00,,,0.00,Wunderground v.1.15,2013-03-15 05:56:00,
2013-03-15 02:02:00,33.5,18.2,30.11,WSW,255,5.0,16.0,53,0.00,,,0.00,Wunderground v.1.15,2013-03-15 06:02:00,
2013-03-15 02:07:00,33.2,18.3,30.11,West,270,4.0,16.0,54,0.00,,,0.00,Wunderground v.1.15,2013-03-15 06:07:00,
2013-03-15 02:12:00,33.2,18.3,30.11,WNW,294,5.0,5.0,54,0.00,,,0.00,Wunderground v.1.15,2013-03-15 06:12:00,
2013-03-15 02:17:00,33.5,18.2,30.11,WNW,289,6.0,10.0,53,0.00,,,0.00,Wunderground v.1.15,2013-03-15 06:17:00,
2013-03-15 02:23:00,33.1,18.7,30.11,WNW,294,5.0,5.0,55,0.00,,,0.00,Wunderground v.1.15,2013-03-15 06:23:00,
2013-03-15 02:28:00,32.9,18.1,30.11,WNW,287,4.0,6.0,54,0.00,,,0.00,Wunderground v.1.15,2013-03-15 06:28:00,
2013-03-15 02:33:00,32.8,18.0,30.11,WNW,282,5.0,12.0,54,0.00,,,0.00,Wunderground v.1.15,2013-03-15 06:33:00,
2013-03-15 02:38:00,32.9,18.5,30.11,West,273,6.0,12.0,55,0.00,,,0.00,Wunderground v.1.15,2013-03-15 06:38:00,
2013-03-15 02:43:00,33.2,18.3,30.11,WNW,288,6.0,6.0,54,0.00,,,0.00,Wunderground v.1.15,2013-03-15 06:43:00,
2013-03-15 02:48:00,33.4,18.5,30.10,WNW,292,6.0,9.0,54,0.00,,,0.00,Wunderground v.1.15,2013-03-15 06:48:00,
2013-03-15 02:53:00,33.2,18.3,30.10,WNW,282,6.0,11.0,54,0.00,,,0.00,Wunderground v.1.15,2013-03-15 06:53:00,
2013-03-15 02:58:00,32.9,18.9,30.10,WNW,286,6.0,11.0,56,0.00,,,0.00,Wunderground v.1.15,2013-03-15 06:58:00,
2013-03-15 03:04:00,32.7,18.7,30.10,West,279,5.0,17.0,56,0.00,,,0.00,Wunderground v.1.15,2013-03-15 07:04:00,
2013-03-15 03:09:00,32.4,18.4,30.10,West,269,6.0,17.0,56,0.00,,,0.00,Wunderground v.1.15,2013-03-15 07:09:00,
2013-03-15 03:15:00,31.9,18.4,30.10,NW,304,5.0,6.0,57,0.00,,,0.00,Wunderground v.1.15,2013-03-15 07:15:00,
2013-03-15 03:21:00,31.8,18.3,30.10,WNW,291,4.0,4.0,57,0.00,,,0.00,Wunderground v.1.15,2013-03-15 07:21:00,
2013-03-15 03:26:00,31.8,18.3,30.10,WNW,298,3.0,4.0,57,0.00,,,0.00,Wunderground v.1.15,2013-03-15 07:26:00,
2013-03-15 03:31:00,31.8,18.3,30.10,WNW,284,2.0,2.0,57,0.00,,,0.00,Wunderground v.1.15,2013-03-15 07:31:00,
2013-03-15 03:37:00,31.2,18.1,30.10,WNW,286,1.0,4.0,58,0.00,,,0.00,Wunderground v.1.15,2013-03-15 07:37:00,
2013-03-15 03:42:00,30.9,18.2,30.11,WNW,301,1.0,1.0,59,0.00,,,0.00,Wunderground v.1.15,2013-03-15 07:42:00,
2013-03-15 03:47:00,30.7,18.1,30.11,WNW,301,0.0,1.0,59,0.00,,,0.00,Wunderground v.1.15,2013-03-15 07:47:00,
2013-03-15 03:52:00,30.4,18.2,30.10,WNW,290,0.0,2.0,60,0.00,,,0.00,Wunderground v.1.15,2013-03-15 07:52:00,
2013-03-15 03:57:00,30.3,18.1,30.10,WNW,290,0.0,2.0,60,0.00,,,0.00,Wunderground v.1.15,2013-03-15 07:57:00,
2013-03-15 04:02:00,30.1,17.9,30.10,NW,308,1.0,20.0,60,0.00,,,0.00,Wunderground v.1.15,2013-03-15 08:02:00,
2013-03-15 04:08:00,30.1,17.9,30.10,NW,309,0.0,20.0,60,0.00,,,0.00,Wunderground v.1.15,2013-03-15 08:08:00,
2013-03-15 04:14:00,30.0,17.8,30.10,NW,309,0.0,0.0,60,0.00,,,0.00,Wunderground v.1.15,2013-03-15 08:14:00,
2013-03-15 04:19:00,30.0,17.8,30.10,WNW,302,0.0,1.0,60,0.00,,,0.00,Wunderground v.1.15,2013-03-15 08:19:00,
2013-03-15 04:25:00,30.1,17.5,30.09,West,280,0.0,2.0,59,0.00,,,0.00,Wunderground v.1.15,2013-03-15 08:25:00,
2013-03-15 04:30:00,30.3,17.7,30.09,West,269,1.0,3.0,59,0.00,,,0.00,Wunderground v.1.15,2013-03-15 08:30:00,
2013-03-15 04:35:00,30.7,17.7,30.09,WNW,285,2.0,3.0,58,0.00,,,0.00,Wunderground v.1.15,2013-03-15 08:35:00,
2013-03-15 04:40:00,30.7,17.7,30.09,WNW,288,2.0,3.0,58,0.00,,,0.00,Wunderground v.1.15,2013-03-15 08:40:00,
2013-03-15 04:45:00,30.9,17.8,30.09,West,275,1.0,3.0,58,0.00,,,0.00,Wunderground v.1.15,2013-03-15 08:45:00,
2013-03-15 04:51:00,31.0,17.5,30.09,WNW,287,2.0,2.0,57,0.00,,,0.00,Wunderground v.1.15,2013-03-15 08:51:00,
2013-03-15 04:57:00,31.2,17.7,30.09,WNW,300,2.0,3.0,57,0.00,,,0.00,Wunderground v.1.15,2013-03-15 08:57:00,
2013-03-15 05:02:00,31.2,17.7,30.10,WNW,300,1.0,11.0,57,0.00,,,0.00,Wunderground v.1.15,2013-03-15 09:02:00,
2013-03-15 05:08:00,31.0,17.5,30.09,NW,304,0.0,11.0,57,0.00,,,0.00,Wunderground v.1.15,2013-03-15 09:08:00,
2013-03-15 05:13:00,31.3,17.4,30.10,West,277,1.0,3.0,56,0.00,,,0.00,Wunderground v.1.15,2013-03-15 09:13:00,
2013-03-15 05:18:00,31.3,17.8,30.10,West,281,1.0,3.0,57,0.00,,,0.00,Wunderground v.1.15,2013-03-15 09:18:00,
2013-03-15 05:24:00,31.2,18.1,30.09,WNW,294,0.0,2.0,58,0.00,,,0.00,Wunderground v.1.15,2013-03-15 09:24:00,
2013-03-15 05:30:00,31.0,17.5,30.09,West,277,1.0,1.0,57,0.00,,,0.00,Wunderground v.1.15,2013-03-15 09:30:00,
2013-03-15 05:35:00,31.0,17.5,30.09,West,277,0.0,1.0,57,0.00,,,0.00,Wunderground v.1.15,2013-03-15 09:35:00,
2013-03-15 05:40:00,31.0,17.5,30.09,West,277,0.0,0.0,57,0.00,,,0.00,Wunderground v.1.15,2013-03-15 09:40:00,
2013-03-15 05:45:00,31.5,17.6,30.09,WSW,244,1.0,2.0,56,0.00,,,0.00,Wunderground v.1.15,2013-03-15 09:45:00,
2013-03-15 05:51:00,31.8,17.9,30.09,West,278,1.0,9.0,56,0.00,,,0.00,Wunderground v.1.15,2013-03-15 09:51:00,
2013-03-15 05:57:00,31.9,18.0,30.09,West,275,3.0,9.0,56,0.00,,,0.00,Wunderground v.1.15,2013-03-15 09:57:00,
2013-03-15 06:02:00,32.1,18.2,30.09,WNW,292,3.0,9.0,56,0.00,,,0.00,Wunderground v.1.15,2013-03-15 10:02:00,
2013-03-15 06:08:00,32.1,18.2,30.09,WNW,288,3.0,9.0,56,0.00,,,0.00,Wunderground v.1.15,2013-03-15 10:08:00,
2013-03-15 06:14:00,31.9,18.4,30.09,WNW,290,3.0,4.0,57,0.00,,,0.00,Wunderground v.1.15,2013-03-15 10:14:00,
2013-03-15 06:19:00,31.8,18.3,30.09,NW,305,3.0,7.0,57,0.00,,,0.00,Wunderground v.1.15,2013-03-15 10:19:00,
2013-03-15 06:24:00,31.9,18.0,30.09,West,272,3.0,11.0,56,0.00,,,0.00,Wunderground v.1.15,2013-03-15 10:24:00,
2013-03-15 06:30:00,32.1,17.7,30.09,WNW,292,3.0,3.0,55,0.00,,,0.00,Wunderground v.1.15,2013-03-15 10:30:00,
2013-03-15 06:35:00,32.2,17.8,30.09,WNW,296,3.0,5.0,55,0.00,,,0.00,Wunderground v.1.15,2013-03-15 10:35:00,
2013-03-15 06:40:00,32.7,17.4,30.09,West,278,3.0,3.0,53,0.00,,,0.00,Wunderground v.1.15,2013-03-15 10:40:00,
2013-03-15 06:45:00,32.5,17.7,30.09,West,259,3.0,4.0,54,0.00,,,0.00,Wunderground v.1.15,2013-03-15 10:45:00,
2013-03-15 06:50:00,32.5,17.2,30.09,SW,223,2.0,4.0,53,0.00,,,0.00,Wunderground v.1.15,2013-03-15 10:50:00,
2013-03-15 06:56:00,32.5,16.8,30.09,WSW,246,1.0,4.0,52,0.00,,,0.00,Wunderground v.1.15,2013-03-15 10:56:00,
2013-03-15 07:01:00,32.5,16.8,30.09,WSW,244,2.0,10.0,52,0.00,,,0.00,Wunderground v.1.15,2013-03-15 11:01:00,
2013-03-15 07:06:00,32.4,16.7,30.09,WSW,244,1.0,10.0,52,0.00,,,0.00,Wunderground v.1.15,2013-03-15 11:06:00,
2013-03-15 07:11:00,32.5,16.8,30.09,WSW,256,2.0,2.0,52,0.00,,,0.00,Wunderground v.1.15,2013-03-15 11:11:00,
2013-03-15 07:16:00,32.4,16.7,30.09,SW,234,2.0,5.0,52,0.00,,,0.00,Wunderground v.1.15,2013-03-15 11:16:00,
2013-03-15 07:21:00,32.5,16.4,30.09,SW,228,2.0,4.0,51,0.00,,,0.00,Wunderground v.1.15,2013-03-15 11:21:00,
2013-03-15 07:27:00,32.7,16.5,30.09,SW,224,2.0,4.0,51,0.00,,,0.00,Wunderground v.1.15,2013-03-15 11:27:00,
2013-03-15 07:32:00,32.7,16.5,30.09,WSW,238,2.0,6.0,51,0.00,,,0.00,Wunderground v.1.15,2013-03-15 11:32:00,
2013-03-15 07:37:00,32.9,16.3,30.09,WNW,293,3.0,6.0,50,0.00,,,0.00,Wunderground v.1.15,2013-03-15 11:37:00,
2013-03-15 07:42:00,32.8,16.2,30.09,WSW,242,2.0,2.0,50,0.00,,,0.00,Wunderground v.1.15,2013-03-15 11:42:00,
2013-03-15 07:47:00,32.7,16.1,30.09,WSW,250,1.0,5.0,50,0.00,,,0.00,Wunderground v.1.15,2013-03-15 11:47:00,
2013-03-15 07:53:00,32.7,16.1,30.08,SW,231,3.0,3.0,50,0.00,,,0.00,Wunderground v.1.15,2013-03-15 11:53:00,
2013-03-15 07:58:00,32.8,16.2,30.09,SW,223,2.0,5.0,50,0.00,,,0.00,Wunderground v.1.15,2013-03-15 11:58:00,
2013-03-15 08:04:00,32.9,16.3,30.09,SW,218,3.0,15.0,50,0.00,,,0.00,Wunderground v.1.15,2013-03-15 12:04:00,
2013-03-15 08:09:00,32.9,16.3,30.09,SSW,202,3.0,15.0,50,0.00,,,0.00,Wunderground v.1.15,2013-03-15 12:09:00,
2013-03-15 08:14:00,32.9,15.8,30.09,SW,224,2.0,4.0,49,0.00,,,0.00,Wunderground v.1.15,2013-03-15 12:14:00,
2013-03-15 08:19:00,32.9,16.3,30.09,SW,231,3.0,4.0,50,0.00,,,0.00,Wunderground v.1.15,2013-03-15 12:19:00,
2013-03-15 08:24:00,32.9,16.3,30.09,WSW,245,4.0,6.0,50,0.00,,,0.00,Wunderground v.1.15,2013-03-15 12:24:00,
2013-03-15 08:30:00,33.1,16.5,30.08,SW,229,3.0,4.0,50,0.00,,,0.00,Wunderground v.1.15,2013-03-15 12:30:00,
2013-03-15 08:36:00,33.2,15.6,30.08,South,186,3.0,5.0,48,0.00,,,0.00,Wunderground v.1.15,2013-03-15 12:36:00,
2013-03-15 08:42:00,33.4,15.8,30.08,SSW,208,4.0,5.0,48,0.00,,,0.00,Wunderground v.1.15,2013-03-15 12:42:00,
2013-03-15 08:47:00,33.5,15.9,30.08,SSW,213,3.0,5.0,48,0.00,,,0.00,Wunderground v.1.15,2013-03-15 12:47:00,
2013-03-15 08:52:00,33.7,16.1,30.08,SW,217,3.0,5.0,48,0.00,,,0.00,Wunderground v.1.15,2013-03-15 12:52:00,
2013-03-15 08:57:00,33.7,15.6,30.08,SSW,196,2.0,5.0,47,0.00,,,0.00,Wunderground v.1.15,2013-03-15 12:57:00,
2013-03-15 09:02:00,33.8,15.7,30.08,SSW,212,2.0,5.0,47,0.00,,,0.00,Wunderground v.1.15,2013-03-15 13:02:00,
2013-03-15 09:07:00,34.1,15.9,30.08,SSW,213,2.0,5.0,47,0.00,,,0.00,Wunderground v.1.15,2013-03-15 13:07:00,
2013-03-15 09:12:00,34.3,16.1,30.07,SW,218,2.0,4.0,47,0.00,,,0.00,Wunderground v.1.15,2013-03-15 13:12:00,
2013-03-15 09:17:00,34.4,16.2,30.07,SSW,209,3.0,6.0,47,0.00,,,0.00,Wunderground v.1.15,2013-03-15 13:17:00,
2013-03-15 09:22:00,34.9,16.2,30.07,SSW,196,3.0,5.0,46,0.00,,,0.00,Wunderground v.1.15,2013-03-15 13:22:00,
2013-03-15 09:27:00,35.2,16.5,30.07,SW,216,3.0,5.0,46,0.00,,,0.00,Wunderground v.1.15,2013-03-15 13:27:00,
2013-03-15 09:32:00,35.5,16.2,30.06,SSW,199,3.0,7.0,45,0.00,,,0.00,Wunderground v.1.15,2013-03-15 13:32:00,
2013-03-15 09:38:00,36.0,16.7,30.06,SW,216,3.0,7.0,45,0.00,,,0.00,Wunderground v.1.15,2013-03-15 13:38:00,
2013-03-15 09:44:00,36.5,17.1,30.06,South,191,3.0,7.0,45,0.00,,,0.00,Wunderground v.1.15,2013-03-15 13:44:00,
2013-03-15 09:49:00,36.9,17.0,30.05,SSW,204,3.0,7.0,44,0.00,,,0.00,Wunderground v.1.15,2013-03-15 13:49:00,
2013-03-15 09:54:00,37.2,16.7,30.05,SW,219,4.0,10.0,43,0.00,,,0.00,Wunderground v.1.15,2013-03-15 13:54:00,
2013-03-15 10:00:00,37.5,17.0,30.05,SW,217,6.0,6.0,43,0.00,,,0.00,Wunderground v.1.15,2013-03-15 14:00:00,
2013-03-15 10:06:00,38.0,16.9,30.04,SSW,206,5.0,10.0,42,0.00,,,0.00,Wunderground v.1.15,2013-03-15 14:06:00,
2013-03-15 10:11:00,38.5,16.2,30.04,South,185,5.0,5.0,40,0.00,,,0.00,Wunderground v.1.15,2013-03-15 14:11:00,
2013-03-15 10:16:00,38.9,16.6,30.04,SSW,199,5.0,12.0,40,0.00,,,0.00,Wunderground v.1.15,2013-03-15 14:16:00,
2013-03-15 10:21:00,39.2,16.9,30.03,South,189,4.0,5.0,40,0.00,,,0.00,Wunderground v.1.15,2013-03-15 14:21:00,
2013-03-15 10:26:00,39.5,16.6,30.03,South,189,4.0,7.0,39,0.00,,,0.00,Wunderground v.1.15,2013-03-15 14:26:00,
2013-03-15 10:31:00,39.6,15.4,30.03,SSW,193,5.0,10.0,37,0.00,,,0.00,Wunderground v.1.15,2013-03-15 14:31:00,
2013-03-15 10:37:00,39.9,17.5,30.03,SW,222,5.0,10.0,40,0.00,,,0.00,Wunderground v.1.15,2013-03-15 14:37:00,
2013-03-15 10:43:00,40.3,16.1,30.02,South,189,5.0,6.0,37,0.00,,,0.00,Wunderground v.1.15,2013-03-15 14:43:00,
2013-03-15 10:48:00,40.6,16.3,30.02,South,181,5.0,7.0,37,0.00,,,0.00,Wunderground v.1.15,2013-03-15 14:48:00,
2013-03-15 10:54:00,41.2,16.9,30.02,SSW,193,4.0,8.0,37,0.00,,,0.00,Wunderground v.1.15,2013-03-15 14:54:00,
2013-03-15 10:59:00,41.5,15.8,30.01,SW,231,5.0,8.0,35,0.00,,,0.00,Wunderground v.1.15,2013-03-15 14:59:00,
2013-03-15 11:04:00,42.2,17.1,30.01,SSW,208,4.0,12.0,36,0.00,,,0.00,Wunderground v.1.15,2013-03-15 15:04:00,
2013-03-15 11:09:00,42.5,16.1,30.01,SW,223,6.0,13.0,34,0.00,,,0.00,Wunderground v.1.15,2013-03-15 15:09:00,
2013-03-15 11:14:00,42.5,17.4,30.01,SSE,163,7.0,7.0,36,0.00,,,0.00,Wunderground v.1.15,2013-03-15 15:14:00,
2013-03-15 11:20:00,42.5,16.7,30.00,SW,226,6.0,6.0,35,0.00,,,0.00,Wunderground v.1.15,2013-03-15 15:20:00,
2013-03-15 11:26:00,42.8,15.6,30.00,SW,223,7.0,15.0,33,0.00,,,0.00,Wunderground v.1.15,2013-03-15 15:26:00,
2013-03-15 11:31:00,42.5,15.4,30.00,SW,234,7.0,8.0,33,0.00,,,0.00,Wunderground v.1.15,2013-03-15 15:31:00,
2013-03-15 11:36:00,43.3,19.4,30.00,SW,222,6.0,9.0,38,0.00,,,0.00,Wunderground v.1.15,2013-03-15 15:36:00,
2013-03-15 11:42:00,43.3,16.1,30.00,WSW,244,6.0,10.0,33,0.00,,,0.00,Wunderground v.1.15,2013-03-15 15:42:00,
2013-03-15 11:47:00,43.3,15.4,30.00,SSW,200,7.0,15.0,32,0.00,,,0.00,Wunderground v.1.15,2013-03-15 15:47:00,
2013-03-15 11:52:00,43.9,16.6,29.99,SSE,166,6.0,9.0,33,0.00,,,0.00,Wunderground v.1.15,2013-03-15 15:52:00,
2013-03-15 11:58:00,44.3,17.0,29.99,WSW,250,5.0,9.0,33,0.00,,,0.00,Wunderground v.1.15,2013-03-15 15:58:00,
2013-03-15 12:03:00,44.3,17.0,29.99,WSW,246,6.0,9.0,33,0.00,,,0.00,Wunderground v.1.15,2013-03-15 16:03:00,
2013-03-15 12:09:00,44.9,18.2,29.98,SSW,205,7.0,10.0,34,0.00,,,0.00,Wunderground v.1.15,2013-03-15 16:09:00,
2013-03-15 12:14:00,45.1,18.4,29.98,WSW,239,6.0,11.0,34,0.00,,,0.00,Wunderground v.1.15,2013-03-15 16:14:00,
2013-03-15 12:20:00,45.4,19.3,29.97,SW,215,5.0,9.0,35,0.00,,,0.00,Wunderground v.1.15,2013-03-15 16:20:00,
2013-03-15 12:26:00,46.0,17.0,29.97,SW,225,7.0,9.0,31,0.00,,,0.00,Wunderground v.1.15,2013-03-15 16:26:00,
2013-03-15 12:31:00,45.5,17.3,29.97,SW,214,8.0,9.0,32,0.00,,,0.00,Wunderground v.1.15,2013-03-15 16:31:00,
2013-03-15 12:36:00,45.8,18.3,29.97,SW,229,9.0,11.0,33,0.00,,,0.00,Wunderground v.1.15,2013-03-15 16:36:00,
2013-03-15 12:41:00,46.5,18.9,29.97,WSW,250,6.0,7.0,33,0.00,,,0.00,Wunderground v.1.15,2013-03-15 16:41:00,
2013-03-15 12:47:00,47.3,20.3,29.97,West,261,5.0,10.0,34,0.00,,,0.00,Wunderground v.1.15,2013-03-15 16:47:00,
2013-03-15 12:52:00,48.2,20.4,29.96,West,281,6.0,6.0,33,0.00,,,0.00,Wunderground v.1.15,2013-03-15 16:52:00,
2013-03-15 12:57:00,49.1,20.5,29.96,WSW,246,5.0,6.0,32,0.00,,,0.00,Wunderground v.1.15,2013-03-15 16:57:00,
2013-03-15 13:03:00,48.3,19.0,29.96,SW,218,8.0,18.0,31,0.00,,,0.00,Wunderground v.1.15,2013-03-15 17:03:00,
2013-03-15 13:08:00,48.8,22.3,29.95,SW,220,7.0,18.0,35,0.00,,,0.00,Wunderground v.1.15,2013-03-15 17:08:00,
2013-03-15 13:13:00,48.6,22.8,29.95,SW,223,7.0,14.0,36,0.00,,,0.00,Wunderground v.1.15,2013-03-15 17:13:00,
2013-03-15 13:19:00,47.7,19.2,29.95,SSW,200,11.0,14.0,32,0.00,,,0.00,Wunderground v.1.15,2013-03-15 17:19:00,
2013-03-15 13:24:00,47.7,20.0,29.95,SW,223,11.0,11.0,33,0.00,,,0.00,Wunderground v.1.15,2013-03-15 17:24:00,
2013-03-15 13:29:00,48.2,19.7,29.94,WSW,241,7.0,11.0,32,0.00,,,0.00,Wunderground v.1.15,2013-03-15 17:29:00,
2013-03-15 13:34:00,49.2,22.7,29.94,SW,229,6.0,11.0,35,0.00,,,0.00,Wunderground v.1.15,2013-03-15 17:34:00,
2013-03-15 13:39:00,49.1,19.7,29.94,SW,229,6.0,11.0,31,0.00,,,0.00,Wunderground v.1.15,2013-03-15 17:39:00,
2013-03-15 13:45:00,48.9,21.0,29.93,WSW,252,8.0,16.0,33,0.00,,,0.00,Wunderground v.1.15,2013-03-15 17:45:00,
2013-03-15 13:50:00,49.5,21.5,29.93,South,190,10.0,10.0,33,0.00,,,0.00,Wunderground v.1.15,2013-03-15 17:50:00,
2013-03-15 13:55:00,50.8,22.7,29.92,WNW,289,8.0,10.0,33,0.00,,,0.00,Wunderground v.1.15,2013-03-15 17:55:00,
2013-03-15 14:00:00,50.8,22.0,29.92,SW,236,7.0,7.0,32,0.00,,,0.00,Wunderground v.1.15,2013-03-15 18:00:00,
2013-03-15 14:06:00,51.6,22.7,29.91,West,259,8.0,18.0,32,0.00,,,0.00,Wunderground v.1.15,2013-03-15 18:06:00,
2013-03-15 14:11:00,52.5,25.6,29.90,SW,232,7.0,13.0,35,0.00,,,0.00,Wunderground v.1.15,2013-03-15 18:11:00,
2013-03-15 14:17:00,51.1,20.7,29.91,West,277,6.0,13.0,30,0.00,,,0.00,Wunderground v.1.15,2013-03-15 18:17:00,
2013-03-15 14:22:00,50.4,22.3,29.90,WNW,301,5.0,6.0,33,0.00,,,0.00,Wunderground v.1.15,2013-03-15 18:22:00,
2013-03-15 14:27:00,50.7,22.6,29.90,SW,231,4.0,6.0,33,0.00,,,0.00,Wunderground v.1.15,2013-03-15 18:27:00,
2013-03-15 14:33:00,51.4,21.7,29.89,SW,217,6.0,11.0,31,0.00,,,0.00,Wunderground v.1.15,2013-03-15 18:33:00,
2013-03-15 14:38:00,51.4,21.7,29.89,SW,216,9.0,13.0,31,0.00,,,0.00,Wunderground v.1.15,2013-03-15 18:38:00,
2013-03-15 14:43:00,51.0,22.9,29.89,WSW,246,9.0,9.0,33,0.00,,,0.00,Wunderground v.1.15,2013-03-15 18:43:00,
2013-03-15 14:48:00,51.7,26.9,29.88,West,281,6.0,9.0,38,0.00,,,0.00,Wunderground v.1.15,2013-03-15 18:48:00,
2013-03-15 14:53:00,53.1,23.2,29.88,SW,214,7.0,15.0,31,0.00,,,0.00,Wunderground v.1.15,2013-03-15 18:53:00,
2013-03-15 14:58:00,53.3,26.3,29.87,WSW,246,8.0,15.0,35,0.00,,,0.00,Wunderground v.1.15,2013-03-15 18:58:00,
2013-03-15 15:03:00,53.5,24.3,29.87,WSW,243,8.0,21.0,32,0.00,,,0.00,Wunderground v.1.15,2013-03-15 19:03:00,
2013-03-15 15:09:00,54.7,25.4,29.87,WSW,254,7.0,21.0,32,0.00,,,0.00,Wunderground v.1.15,2013-03-15 19:09:00,
2013-03-15 15:14:00,54.7,25.4,29.86,West,262,7.0,10.0,32,0.00,,,0.00,Wunderground v.1.15,2013-03-15 19:14:00,
2013-03-15 15:20:00,54.2,25.7,29.86,SW,222,9.0,9.0,33,0.00,,,0.00,Wunderground v.1.15,2013-03-15 19:20:00,
2013-03-15 15:25:00,54.2,28.5,29.86,WSW,242,9.0,10.0,37,0.00,,,0.00,Wunderground v.1.15,2013-03-15 19:25:00,
2013-03-15 15:31:00,54.8,26.9,29.85,WNW,293,8.0,13.0,34,0.00,,,0.00,Wunderground v.1.15,2013-03-15 19:31:00,
2013-03-15 15:37:00,55.0,24.9,29.85,WSW,257,6.0,13.0,31,0.00,,,0.00,Wunderground v.1.15,2013-03-15 19:37:00,
2013-03-15 15:42:00,54.5,28.7,29.85,WSW,248,5.0,12.0,37,0.00,,,0.00,Wunderground v.1.15,2013-03-15 19:42:00,
2013-03-15 15:47:00,54.8,29.0,29.85,WSW,246,7.0,12.0,37,0.00,,,0.00,Wunderground v.1.15,2013-03-15 19:47:00,
2013-03-15 15:52:00,55.4,28.2,29.84,WSW,255,7.0,11.0,35,0.00,,,0.00,Wunderground v.1.15,2013-03-15 19:52:00,
2013-03-15 15:57:00,56.0,30.1,29.84,West,259,7.0,11.0,37,0.00,,,0.00,Wunderground v.1.15,2013-03-15 19:57:00,
2013-03-15 16:02:00,56.2,28.2,29.84,WNW,285,6.0,20.0,34,0.00,,,0.00,Wunderground v.1.15,2013-03-15 20:02:00,
2013-03-15 16:08:00,56.5,29.1,29.84,WSW,246,6.0,20.0,35,0.00,,,0.00,Wunderground v.1.15,2013-03-15 20:08:00,
2013-03-15 16:13:00,55.4,28.2,29.84,West,277,8.0,10.0,35,0.00,,,0.00,Wunderground v.1.15,2013-03-15 20:13:00,
2013-03-15 16:18:00,55.3,30.1,29.83,SW,225,8.0,11.0,38,0.00,,,0.00,Wunderground v.1.15,2013-03-15 20:18:00,
2013-03-15 16:23:00,55.3,30.1,29.83,WSW,246,8.0,14.0,38,0.00,,,0.00,Wunderground v.1.15,2013-03-15 20:23:00,
2013-03-15 16:28:00,55.3,28.8,29.83,WNW,288,8.0,14.0,36,0.00,,,0.00,Wunderground v.1.15,2013-03-15 20:28:00,
2013-03-15 16:33:00,55.3,30.7,29.83,West,279,7.0,12.0,39,0.00,,,0.00,Wunderground v.1.15,2013-03-15 20:33:00,
2013-03-15 16:39:00,55.4,30.2,29.83,WSW,258,7.0,12.0,38,0.00,,,0.00,Wunderground v.1.15,2013-03-15 20:39:00,
2013-03-15 16:44:00,55.9,29.3,29.82,West,260,7.0,7.0,36,0.00,,,0.00,Wunderground v.1.15,2013-03-15 20:44:00,
2013-03-15 16:49:00,55.9,29.3,29.83,WSW,254,7.0,7.0,36,0.00,,,0.00,Wunderground v.1.15,2013-03-15 20:49:00,
2013-03-15 16:54:00,55.7,30.5,29.82,SW,230,7.0,10.0,38,0.00,,,0.00,Wunderground v.1.15,2013-03-15 20:54:00,
2013-03-15 16:59:00,55.7,29.8,29.83,WSW,242,6.0,10.0,37,0.00,,,0.00,Wunderground v.1.15,2013-03-15 20:59:00,
2013-03-15 17:04:00,55.6,31.0,29.82,WSW,245,6.0,9.0,39,0.00,,,0.00,Wunderground v.1.15,2013-03-15 21:04:00,
2013-03-15 17:10:00,55.4,30.2,29.82,West,275,6.0,6.0,38,0.00,,,0.00,Wunderground v.1.15,2013-03-15 21:10:00,
2013-03-15 17:15:00,55.4,30.2,29.82,WSW,252,6.0,6.0,38,0.00,,,0.00,Wunderground v.1.15,2013-03-15 21:15:00,
2013-03-15 17:21:00,55.6,30.4,29.82,West,275,5.0,6.0,38,0.00,,,0.00,Wunderground v.1.15,2013-03-15 21:21:00,
2013-03-15 17:27:00,55.6,31.0,29.82,WSW,238,5.0,6.0,39,0.00,,,0.00,Wunderground v.1.15,2013-03-15 21:27:00,
2013-03-15 17:32:00,55.7,31.1,29.81,WNW,295,5.0,7.0,39,0.00,,,0.00,Wunderground v.1.15,2013-03-15 21:32:00,
2013-03-15 17:37:00,55.7,31.7,29.81,West,268,5.0,7.0,40,0.00,,,0.00,Wunderground v.1.15,2013-03-15 21:37:00,
2013-03-15 17:43:00,55.7,32.3,29.81,WNW,290,7.0,11.0,41,0.00,,,0.00,Wunderground v.1.15,2013-03-15 21:43:00,
2013-03-15 17:48:00,55.7,31.7,29.81,WSW,258,8.0,21.0,40,0.00,,,0.00,Wunderground v.1.15,2013-03-15 21:48:00,
2013-03-15 17:53:00,55.6,31.6,29.81,West,263,9.0,15.0,40,0.00,,,0.00,Wunderground v.1.15,2013-03-15 21:53:00,
2013-03-15 17:58:00,55.4,32.7,29.81,West,271,8.0,15.0,42,0.00,,,0.00,Wunderground v.1.15,2013-03-15 21:58:00,
2013-03-15 18:03:00,55.3,33.2,29.80,West,281,6.0,16.0,43,0.00,,,0.00,Wunderground v.1.15,2013-03-15 22:03:00,
2013-03-15 18:08:00,55.1,32.4,29.80,SSW,206,7.0,16.0,42,0.00,,,0.00,Wunderground v.1.15,2013-03-15 22:08:00,
2013-03-15 18:13:00,55.0,32.3,29.80,WSW,248,7.0,7.0,42,0.00,,,0.00,Wunderground v.1.15,2013-03-15 22:13:00,
2013-03-15 18:19:00,54.8,31.5,29.80,West,265,7.0,11.0,41,0.00,,,0.00,Wunderground v.1.15,2013-03-15 22:19:00,
2013-03-15 18:24:00,54.8,31.5,29.80,West,274,7.0,7.0,41,0.00,,,0.00,Wunderground v.1.15,2013-03-15 22:24:00,
2013-03-15 18:29:00,54.8,31.5,29.80,WNW,288,7.0,7.0,41,0.00,,,0.00,Wunderground v.1.15,2013-03-15 22:29:00,
2013-03-15 18:34:00,54.5,31.9,29.80,West,279,7.0,8.0,42,0.00,,,0.00,Wunderground v.1.15,2013-03-15 22:34:00,
2013-03-15 18:39:00,54.5,31.3,29.81,West,271,7.0,11.0,41,0.00,,,0.00,Wunderground v.1.15,2013-03-15 22:39:00,
2013-03-15 18:44:00,54.5,31.3,29.81,WNW,288,8.0,11.0,41,0.00,,,0.00,Wunderground v.1.15,2013-03-15 22:44:00,
2013-03-15 18:50:00,54.5,31.9,29.81,West,274,9.0,9.0,42,0.00,,,0.00,Wunderground v.1.15,2013-03-15 22:50:00,
2013-03-15 18:55:00,53.9,31.9,29.81,WNW,298,8.0,10.0,43,0.00,,,0.00,Wunderground v.1.15,2013-03-15 22:55:00,
2013-03-15 19:01:00,53.8,31.2,29.81,West,265,7.0,21.0,42,0.00,,,0.00,Wunderground v.1.15,2013-03-15 23:01:00,
2013-03-15 19:06:00,53.6,31.6,29.82,West,277,7.0,21.0,43,0.00,,,0.00,Wunderground v.1.15,2013-03-15 23:06:00,
2013-03-15 19:12:00,53.6,31.0,29.82,West,277,7.0,10.0,42,0.00,,,0.00,Wunderground v.1.15,2013-03-15 23:12:00,
2013-03-15 19:17:00,53.6,31.6,29.82,WNW,286,7.0,10.0,43,0.00,,,0.00,Wunderground v.1.15,2013-03-15 23:17:00,
2013-03-15 19:22:00,53.5,32.1,29.82,WNW,296,6.0,9.0,44,0.00,,,0.00,Wunderground v.1.15,2013-03-15 23:22:00,
2013-03-15 19:28:00,53.3,31.4,29.82,WSW,257,6.0,10.0,43,0.00,,,0.00,Wunderground v.1.15,2013-03-15 23:28:00,
2013-03-15 19:34:00,53.2,31.3,29.82,West,272,7.0,15.0,43,0.00,,,0.00,Wunderground v.1.15,2013-03-15 23:34:00,
2013-03-15 19:39:00,53.2,31.3,29.82,West,272,7.0,15.0,43,0.00,,,0.00,Wunderground v.1.15,2013-03-15 23:39:00,
2013-03-15 19:44:00,53.1,31.7,29.83,WNW,294,6.0,7.0,44,0.00,,,0.00,Wunderground v.1.15,2013-03-15 23:44:00,
2013-03-15 19:50:00,52.6,31.8,29.83,WNW,286,5.0,5.0,45,0.00,,,0.00,Wunderground v.1.15,2013-03-15 23:50:00,
2013-03-15 19:55:00,52.3,31.6,29.83,WNW,286,4.0,6.0,45,0.00,,,0.00,Wunderground v.1.15,2013-03-15 23:55:00,
2013-03-15 20:00:00,52.2,32.0,29.83,WNW,292,4.0,4.0,46,0.00,,,0.00,Wunderground v.1.15,2013-03-16 00:00:00,
2013-03-15 20:05:00,52.0,31.8,29.83,WNW,294,4.0,19.0,46,0.00,,,0.00,Wunderground v.1.15,2013-03-16 00:05:00,
2013-03-15 20:11:00,51.7,32.1,29.83,WNW,298,4.0,5.0,47,0.00,,,0.00,Wunderground v.1.15,2013-03-16 00:11:00,
2013-03-15 20:17:00,51.6,32.0,29.83,WNW,296,4.0,6.0,47,0.00,,,0.00,Wunderground v.1.15,2013-03-16 00:17:00,
2013-03-15 20:22:00,51.4,31.8,29.83,WNW,292,4.0,5.0,47,0.00,,,0.00,Wunderground v.1.15,2013-03-16 00:22:00,
2013-03-15 20:27:00,51.4,31.8,29.83,WNW,290,5.0,5.0,47,0.00,,,0.00,Wunderground v.1.15,2013-03-16 00:27:00,
2013-03-15 20:33:00,51.1,31.6,29.84,WNW,297,5.0,6.0,47,0.00,,,0.00,Wunderground v.1.15,2013-03-16 00:33:00,
2013-03-15 20:39:00,51.1,31.6,29.84,WNW,291,5.0,6.0,47,0.00,,,0.00,Wunderground v.1.15,2013-03-16 00:39:00,
2013-03-15 20:44:00,50.5,32.0,29.85,WNW,288,4.0,6.0,49,0.00,,,0.00,Wunderground v.1.15,2013-03-16 00:44:00,
2013-03-15 20:50:00,50.5,31.5,29.84,WNW,288,5.0,5.0,48,0.00,,,0.00,Wunderground v.1.15,2013-03-16 00:50:00,
2013-03-15 20:55:00,50.4,31.9,29.84,WNW,292,5.0,9.0,49,0.00,,,0.00,Wunderground v.1.15,2013-03-16 00:55:00,
2013-03-15 21:00:00,50.1,31.7,29.84,West,278,5.0,5.0,49,0.00,,,0.00,Wunderground v.1.15,2013-03-16 01:00:00,
2013-03-15 21:05:00,49.8,31.9,29.84,WNW,294,5.0,19.0,50,0.00,,,0.00,Wunderground v.1.15,2013-03-16 01:05:00,
2013-03-15 21:11:00,49.6,31.7,29.84,WNW,283,6.0,6.0,50,0.00,,,0.00,Wunderground v.1.15,2013-03-16 01:11:00,
2013-03-15 21:17:00,49.8,31.9,29.84,WNW,289,6.0,9.0,50,0.00,,,0.00,Wunderground v.1.15,2013-03-16 01:17:00,
2013-03-15 21:22:00,49.5,31.6,29.84,WNW,287,5.0,5.0,50,0.00,,,0.00,Wunderground v.1.15,2013-03-16 01:22:00,
2013-03-15 21:27:00,49.4,31.5,29.84,NW,304,5.0,8.0,50,0.00,,,0.00,Wunderground v.1.15,2013-03-16 01:27:00,
2013-03-15 21:33:00,48.9,31.5,29.84,WNW,289,5.0,12.0,51,0.00,,,0.00,Wunderground v.1.15,2013-03-16 01:33:00,
2013-03-15 21:38:00,48.9,31.5,29.84,WNW,290,5.0,12.0,51,0.00,,,0.00,Wunderground v.1.15,2013-03-16 01:38:00,
2013-03-15 21:43:00,48.9,31.5,29.84,WNW,282,5.0,7.0,51,0.00,,,0.00,Wunderground v.1.15,2013-03-16 01:43:00,
2013-03-15 21:48:00,48.6,31.8,29.84,WNW,296,5.0,7.0,52,0.00,,,0.00,Wunderground v.1.15,2013-03-16 01:48:00,
2013-03-15 21:54:00,48.6,31.8,29.84,WNW,290,5.0,6.0,52,0.00,,,0.00,Wunderground v.1.15,2013-03-16 01:54:00,
2013-03-15 21:59:00,48.6,31.3,29.84,WNW,290,5.0,7.0,51,0.00,,,0.00,Wunderground v.1.15,2013-03-16 01:59:00,
2013-03-15 22:04:00,48.8,31.5,29.84,West,279,5.0,14.0,51,0.00,,,0.00,Wunderground v.1.15,2013-03-16 02:04:00,
2013-03-15 22:10:00,49.1,31.7,29.84,WNW,287,6.0,6.0,51,0.00,,,0.00,Wunderground v.1.15,2013-03-16 02:10:00,
2013-03-15 22:16:00,49.2,32.8,29.84,WNW,292,6.0,11.0,53,0.00,,,0.00,Wunderground v.1.15,2013-03-16 02:16:00,
2013-03-15 22:22:00,49.1,31.7,29.84,WNW,289,5.0,5.0,51,0.00,,,0.00,Wunderground v.1.15,2013-03-16 02:22:00,
2013-03-15 22:27:00,49.2,31.3,29.84,WNW,289,6.0,12.0,50,0.00,,,0.00,Wunderground v.1.15,2013-03-16 02:27:00,
2013-03-15 22:32:00,49.4,31.5,29.84,WNW,285,6.0,6.0,50,0.00,,,0.00,Wunderground v.1.15,2013-03-16 02:32:00,
2013-03-15 22:37:00,49.4,32.0,29.83,WNW,288,6.0,11.0,51,0.00,,,0.00,Wunderground v.1.15,2013-03-16 02:37:00,
2013-03-15 22:42:00,49.2,31.8,29.83,WNW,289,6.0,6.0,51,0.00,,,0.00,Wunderground v.1.15,2013-03-16 02:42:00,
2013-03-15 22:47:00,49.1,31.7,29.83,WNW,290,6.0,10.0,51,0.00,,,0.00,Wunderground v.1.15,2013-03-16 02:47:00,
2013-03-15 22:52:00,49.1,31.7,29.83,WNW,301,6.0,6.0,51,0.00,,,0.00,Wunderground v.1.15,2013-03-16 02:52:00,
2013-03-15 22:58:00,49.1,31.7,29.83,WNW,294,6.0,8.0,51,0.00,,,0.00,Wunderground v.1.15,2013-03-16 02:58:00,
2013-03-15 23:03:00,49.1,31.7,29.83,NW,304,6.0,13.0,51,0.00,,,0.00,Wunderground v.1.15,2013-03-16 03:03:00,
2013-03-15 23:09:00,49.1,31.7,29.83,WNW,284,6.0,13.0,51,0.00,,,0.00,Wunderground v.1.15,2013-03-16 03:09:00,
2013-03-15 23:15:00,48.8,31.5,29.83,WNW,302,6.0,11.0,51,0.00,,,0.00,Wunderground v.1.15,2013-03-16 03:15:00,
2013-03-15 23:20:00,48.8,31.9,29.83,WNW,289,6.0,6.0,52,0.00,,,0.00,Wunderground v.1.15,2013-03-16 03:20:00,
2013-03-15 23:25:00,48.8,31.9,29.83,WNW,294,6.0,6.0,52,0.00,,,0.00,Wunderground v.1.15,2013-03-16 03:25:00,
2013-03-15 23:31:00,48.5,31.7,29.82,WNW,287,6.0,6.0,52,0.00,,,0.00,Wunderground v.1.15,2013-03-16 03:31:00,
2013-03-15 23:36:00,48.6,31.8,29.83,WNW,283,6.0,7.0,52,0.00,,,0.00,Wunderground v.1.15,2013-03-16 03:36:00,
2013-03-15 23:42:00,48.6,31.8,29.83,WNW,289,6.0,7.0,52,0.00,,,0.00,Wunderground v.1.15,2013-03-16 03:42:00,
2013-03-15 23:47:00,48.3,31.5,29.83,WNW,292,5.0,9.0,52,0.00,,,0.00,Wunderground v.1.15,2013-03-16 03:47:00,
2013-03-15 23:52:00,48.2,31.9,29.83,WNW,284,5.0,6.0,53,0.00,,,0.00,Wunderground v.1.15,2013-03-16 03:52:00,
2013-03-15 23:58:00,48.0,31.7,29.83,WNW,288,5.0,6.0,53,0.00,,,0.00,Wunderground v.1.15,2013-03-16 03:58:00,